Temp
25 24 24 22 22 18 22 25 24 27 26 27 25 25 26 26 26 24 21 21 25 23 22 21 22 23 23 23 22 22 21 21 21 20 20 20 20 20 20 20 20 19 18 18 18 19 19 19 19
25 25 23 17 20 21 23 23 26 27 27 26 28 27 27 28 23 19 20 21 24 23 22 21 22 22 23 23 22 22 21 21 21 21 20 20 20 20 19 20 20 19 18 18 18 19 19 19 18
24 24 20 17 16 23 24 25 26 26 26 28 28 27 27 27 21 20 22 22 22 22 21 21 22 22 23 22 22 22 21 21 21 21 21 20 20 19 19 19 18 17 18 18 18 18 18 18 18
24 21 17 20 24 24 25 26 29 28 29 28 27 28 26 24 22 22 22 22 22 22 21 22 22 22 22 22 22 22 21 21 21 21 21 21 21 20 19 19 19 19 19 19 19 19 18 18 18
23 17 19 21 23 23 23 24 27 29 28 28 27 27 25 23 24 22 21 21 23 21 22 22 22 22 22 22 22 22 22 21 21 21 21 21 21 20 20 19 19 19 19 19 19 19 19 19 18
20 18 20 23 24 24 24 25 27 27 28 26 27 25 25 21 21 21 21 21 23 23 22 22 21 22 22 22 22 22 22 21 21 21 20 20 21 20 20 19 19 19 19 19 19 19 19 19 19
21 19 21 23 23 24 27 26 28 26 26 26 26 25 23 21 21 21 21 21 22 22 22 21 21 21 22 22 22 22 22 21 21 21 20 20 20 20 20 20 19 19 19 19 19 19 19 19 19
18 19 23 22 24 26 27 27 27 28 27 26 26 26 25 21 20 20 20 21 22 22 21 21 21 21 21 21 22 22 22 22 21 21 20 20 20 20 19 19 19 19 19 19 19 20 20 20 19
20 20 21 24 25 26 26 27 27 27 26 27 26 26 25 21 20 20 19 19 19 19 20 20 20 20 21 21 21 21 21 21 21 21 20 20 20 20 20 20 19 19 19 19 20 20 20 20 20
21 20 22 24 26 25 25 27 28 28 28 27 26 22 21 20 19 18 18 18 18 18 18 19 20 20 21 21 21 21 21 21 20 20 20 20 20 20 20 20 20 19 19 19 19 20 20 19 19
21 22 23 25 25 25 25 25 28 26 28 27 26 21 20 20 19 19 19 19 19 19 18 19 19 20 21 21 20 20 21 21 20 20 20 20 20 20 20 20 20 19 19 19 19 19 19 19 19
24 23 24 25 26 24 25 24 27 27 28 29 25 21 20 20 20 20 19 20 20 19 20 19 19 21 20 21 21 21 21 21 20 20 20 20 20 20 20 20 20 20 19 19 19 20 19 19 19
23 24 24 24 23 23 25 25 26 27 27 26 23 22 21 21 21 21 20 20 20 20 20 21 21 21 21 21 21 21 21 21 21 21 20 20 20 20 20 20 20 20 19 20 20 19 19 19 18
23 23 22 23 24 24 25 25 27 27 26 25 23 22 22 21 21 21 21 20 20 21 21 21 21 21 21 21 21 21 21 21 21 21 21 20 20 20 20 20 20 19 20 20 19 19 18 18 18
23 22 22 23 25 25 24 25 26 26 26 25 23 22 22 22 22 21 21 21 21 21 22 22 22 22 21 21 21 21 21 21 21 21 21 20 20 20 20 20 20 20 20 19 19 18 18 18 18
22 21 21 23 24 25 25 25 26 26 24 25 23 22 22 22 23 23 22 22 21 20 21 22 22 22 21 21 21 21 21 21 21 21 21 20 20 20 20 20 20 20 20 19 19 18 18 18 18
17 19 21 22 24 25 24 24 25 24 25 25 22 21 21 23 23 24 23 23 22 22 21 21 21 21 20 18 18 19 19 20 20 21 21 21 20 20 20 20 20 20 20 19 19 18 18 18 17
18 19 20 21 23 23 22 21 21 22 21 21 21 20 20 21 23 25 24 24 22 21 21 21 21 20 20 18 18 18 18 19 19 20 20 20 20 20 20 19 19 19 19 19 18 18 17 18 17
21 21 19 20 22 21 22 19 21 21 21 21 20 21 19 20 24 25 25 25 24 22 21 21 20 20 19 18 17 16 17 17 18 18 20 20 20 20 20 19 19 19 19 19 18 17 17 16 16
20 20 20 20 21 21 20 20 21 21 20 21 21 21 21 21 21 22 25 25 24 23 22 21 21 20 20 18 18 17 17 17 17 17 18 20 20 20 20 19 19 19 19 18 18 18 16 16 16
18 19 19 20 20 21 20 19 23 22 20 21 20 21 21 21 21 21 21 24 24 24 22 21 21 20 20 19 18 18 18 17 17 17 17 18 20 20 20 19 19 19 19 18 18 18 18 16 14
18 19 20 20 20 18 21 17 21 22 21 21 21 21 20 21 21 21 21 22 24 24 24 22 21 20 19 18 18 18 18 18 18 18 17 17 19 20 20 19 19 19 19 18 18 18 18 18 16
19 20 20 20 19 17 19 17 21 20 21 20 21 22 22 20 20 20 21 22 25 26 24 24 22 21 20 19 19 18 18 19 19 18 17 17 18 19 20 19 19 19 19 18 18 17 17 17 17
19 19 19 19 17 16 17 18 20 20 21 22 22 21 21 20 19 19 22 24 23 24 25 25 24 23 20 19 18 18 18 19 19 18 17 17 17 18 19 19 19 18 18 18 17 18 17 17 17
18 17 15 16 14 15 18 18 20 20 21 22 21 21 20 19 20 20 18 19 21 21 23 24 23 22 21 19 18 18 18 19 19 18 17 17 16 17 18 19 18 18 18 16 17 16 16 16 16
16 16 13 14 15 16 18 16 18 21 21 20 19 18 19 19 19 19 19 18 19 20 21 22 23 22 21 20 19 18 18 18 18 18 18 17 16 16 17 17 17 17 16 15 16 15 15 15 15
17 16 17 15 15 14 15 17 20 21 21 17 16 18 18 18 18 18 18 19 19 20 20 21 21 22 22 21 19 18 18 18 18 18 17 17 16 16 17 17 17 17 16 15 15 14 14 14 13
17 17 15 14 13 12 14 15 17 19 17 15 16 16 16 17 17 18 18 19 20 20 20 20 21 20 21 21 19 18 18 18 18 18 17 17 16 17 17 16 16 16 15 14 14 13 13 12 11
14 14 15 15 13 12 13 14 16 15 15 15 15 16 17 16 17 18 18 19 19 19 19 19 19 20 19 20 19 17 17 17 17 18 16 16 16 16 16 15 15 13 12 12 12 12 12 11 10
14 14 13 10 12 11 12 15 17 14 15 15 15 16 16 16 16 17 17 18 18 19 19 19 19 18 17 18 20 17 17 17 17 17 16 15 16 15 14 14 12 11 11 11 11 10 9 10 8
Height
775 775 775 775 805 816 814 797 787 778 775 763 764 774 778 775 784 803 772 774 778 783 788 794 798 802 805 807 811 812 814 816 817 820 822 824 826 827 828 829 829 831 833 834 834 835 836 836 837
773 772 775 788 818 827 816 795 787 774 765 764 764 768 770 775 771 774 776 775 778 783 788 793 797 802 804 807 811 813 816 818 819 821 823 825 827 829 830 831 832 833 835 836 837 837 838 838 839
772 771 782 807 829 819 813 788 778 770 763 763 769 765 770 774 772 772 772 774 779 784 788 792 797 801 804 807 810 813 816 819 821 823 824 826 827 829 831 832 834 835 836 837 838 839 839 840 840
772 774 790 810 807 796 789 776 768 767 761 760 765 775 770 771 771 773 774 776 779 785 788 793 797 801 804 807 810 813 815 818 821 823 825 826 827 829 832 834 835 836 837 838 839 839 840 841 841
773 785 811 813 805 791 781 770 766 767 767 765 766 777 778 772 772 773 776 778 780 785 789 794 798 801 804 807 810 813 815 818 822 824 826 827 828 829 831 833 836 837 838 839 839 840 841 842 842
787 793 816 814 801 786 777 767 765 767 764 768 772 776 776 773 773 774 778 780 783 785 789 793 798 801 804 807 810 812 815 818 821 823 826 828 829 830 832 833 835 837 838 839 840 840 841 842 842
790 803 812 806 802 792 774 762 763 766 767 769 766 782 775 773 773 775 778 783 786 788 790 794 797 801 805 806 809 812 814 817 820 822 825 828 829 830 832 834 835 837 838 839 840 840 841 842 842
786 797 803 805 803 793 768 763 757 756 765 758 761 778 777 767 770 775 779 783 787 789 792 794 797 801 804 807 810 812 814 817 819 821 824 827 829 830 832 833 835 836 837 838 839 839 840 841 842
780 807 815 797 794 784 769 770 756 753 760 758 760 762 762 766 771 775 781 784 786 789 791 794 797 800 803 806 809 812 815 817 818 820 823 825 828 830 831 833 834 836 837 838 838 839 839 840 841
789 808 799 783 777 780 772 769 762 760 762 762 761 764 764 767 772 774 776 779 782 784 788 792 794 797 801 804 807 810 813 816 818 819 821 822 825 827 829 831 833 834 835 836 837 838 839 839 840
787 801 784 777 772 773 775 772 761 765 769 762 763 765 767 769 772 774 775 776 776 781 784 786 791 794 797 801 805 808 810 813 816 818 820 822 823 825 827 829 831 833 834 834 835 837 838 839 839
788 780 779 773 770 774 776 772 768 764 759 750 752 758 764 768 769 768 770 773 775 778 781 784 787 790 794 797 800 804 807 810 812 815 819 820 822 823 824 826 829 830 832 833 834 835 836 838 838
785 780 775 773 772 773 770 770 770 765 753 752 753 758 761 763 766 769 770 771 774 775 778 780 783 786 789 793 797 799 801 804 807 811 814 817 819 821 823 824 826 828 830 831 833 834 835 836 837
779 779 779 774 771 769 773 768 763 759 754 757 757 757 759 759 759 765 768 768 766 769 771 777 780 783 786 787 790 793 797 800 803 805 808 811 814 817 820 822 823 824 827 829 830 832 833 834 835
776 785 781 774 770 769 767 775 771 758 756 758 760 759 759 757 764 759 756 760 761 761 766 768 774 778 780 781 785 788 790 795 799 801 803 805 809 812 815 817 819 821 822 825 827 829 831 831 832
786 789 799 775 769 763 766 784 762 755 761 764 762 761 759 757 755 755 757 756 758 762 761 764 768 771 774 776 779 782 784 788 791 795 799 802 805 808 810 813 814 817 819 820 823 825 827 829 830
804 808 798 786 767 768 773 781 763 758 759 762 765 763 760 755 755 753 752 751 752 752 757 759 762 764 769 774 778 779 781 783 786 789 793 796 799 803 805 808 811 813 815 816 818 820 823 825 827
805 802 797 793 778 774 781 783 772 763 762 763 762 762 761 756 749 745 745 746 747 749 753 757 758 759 763 771 774 775 777 778 780 782 785 790 793 796 800 803 807 809 810 812 814 815 818 821 824
785 790 796 791 780 785 784 786 774 764 761 763 758 755 757 753 740 740 739 739 741 745 748 748 751 752 757 760 765 767 764 771 773 775 779 782 787 790 793 796 801 804 805 807 811 812 815 817 820
790 793 791 790 780 782 788 775 764 764 759 755 754 751 747 744 740 736 733 732 734 734 734 739 741 746 746 750 751 760 763 764 768 771 771 774 778 781 785 788 792 796 799 802 804 807 811 813 815
792 794 792 795 785 780 785 781 754 750 751 746 747 744 742 739 736 733 732 729 728 729 729 728 727 731 733 739 749 755 759 760 761 759 761 762 768 771 777 780 784 788 792 795 797 799 803 807 812
794 780 784 789 794 806 781 805 760 752 751 748 744 745 743 738 731 729 730 727 724 721 723 725 727 729 735 738 738 739 738 743 739 746 752 755 758 763 769 773 777 780 784 787 790 793 797 802 805
786 775 780 785 795 800 796 809 749 755 754 754 746 739 737 736 733 729 726 727 724 719 719 719 718 722 724 726 731 734 736 730 736 739 743 747 750 754 760 764 770 775 778 781 784 788 792 795 799
776 779 781 781 794 812 793 801 760 761 753 743 739 739 735 734 733 727 722 721 722 721 719 718 718 714 716 719 721 723 723 729 732 731 732 736 741 745 751 755 758 765 770 771 777 783 787 790 793
782 792 811 809 817 805 783 798 749 744 744 741 743 740 737 735 733 729 727 719 719 721 719 716 715 715 713 713 714 713 712 717 719 722 724 728 730 734 738 744 749 754 762 767 772 778 783 785 789
787 792 812 811 807 799 782 789 756 739 739 739 744 745 741 738 733 727 726 723 718 715 715 713 710 707 707 706 704 703 705 708 710 711 712 717 719 722 729 737 742 749 756 764 769 775 781 783 787
782 789 782 796 798 804 791 770 745 736 738 748 751 746 745 742 737 732 723 718 715 711 707 704 702 700 696 693 691 692 698 699 699 703 706 708 711 716 720 727 736 740 748 757 765 771 778 782 784
779 780 796 801 812 814 791 783 766 743 752 757 757 757 750 743 737 731 727 721 713 707 703 699 694 690 686 681 679 678 678 685 690 695 694 697 702 708 716 720 728 733 742 752 759 766 773 779 783
793 795 792 793 803 808 798 778 748 753 759 761 759 753 748 742 735 728 723 720 714 705 699 693 687 683 677 670 666 667 667 672 679 684 685 689 695 701 709 717 724 731 735 745 753 761 767 772 779
790 794 795 816 808 807 799 767 739 753 755 753 754 750 746 741 735 727 722 717 710 704 696 688 683 678 669 662 658 659 664 666 668 673 680 682 690 697 706 713 719 726 733 740 749 758 768 768 775
Wind_Speed
4 6 1 4 4 5 4 4 3 1 4 3 10 5 7 4 5 4 1 12 33 38 34 32 29 26 24 23 22 22 22 22 21 20 18 16 15 15 15 15 16 15 15 15 15 14 14 13 12
3 1 3 3 5 4 5 4 6 4 0 7 5 3 3 2 3 4 14 19 30 38 34 32 30 28 26 23 22 21 21 20 20 19 17 16 14 14 14 13 14 14 13 13 12 12 12 11 10
1 2 4 4 3 3 4 4 5 3 4 3 3 4 2 4 2 12 6 29 33 35 33 33 31 29 26 24 22 21 20 19 18 17 16 15 14 13 13 13 12 12 12 11 10 10 10 10 9
1 5 4 4 2 4 4 4 1 2 2 3 4 3 2 4 6 5 22 30 37 33 33 33 31 29 26 24 22 21 20 19 18 16 15 15 14 13 12 11 11 10 10 9 9 9 8 8 7
4 3 4 1 4 5 5 7 1 2 1 3 2 1 2 3 2 13 26 32 37 32 32 32 31 29 26 24 22 20 20 19 18 16 15 14 14 13 12 11 10 8 8 7 7 7 7 7 7
4 3 4 2 4 5 6 6 2 3 3 4 4 3 2 2 11 23 25 31 33 32 32 32 30 28 27 25 22 20 20 19 18 16 14 13 13 13 12 11 10 8 6 6 5 5 6 6 7
5 4 2 2 3 6 4 4 5 8 7 6 7 5 3 3 10 23 25 29 28 29 31 32 31 28 26 25 23 21 20 20 19 17 15 13 12 12 11 10 9 8 6 6 5 5 5 6 7
5 4 2 3 2 5 5 8 4 3 4 5 6 5 5 5 20 24 25 28 27 27 30 31 31 29 27 25 23 21 21 20 19 17 16 14 12 11 10 9 8 6 6 5 5 5 5 5 6
3 4 2 4 3 5 5 7 6 1 6 1 7 2 2 23 26 26 25 24 24 24 30 32 31 30 28 26 24 22 21 20 20 19 17 15 14 12 11 9 8 7 6 5 4 5 6 6 5
4 3 7 4 1 5 6 2 5 2 2 2 2 6 18 27 24 20 20 21 25 26 29 31 33 32 29 28 26 25 23 23 22 20 19 18 15 13 12 10 9 8 6 6 6 6 7 6 6
5 4 4 3 4 3 5 7 2 6 2 5 6 7 10 18 16 16 18 23 30 33 32 34 33 34 32 31 29 28 26 25 24 22 21 19 17 16 14 13 11 10 8 7 7 7 6 5 3
2 5 5 3 2 6 5 7 4 4 7 3 7 12 10 12 13 20 22 27 30 34 37 36 35 35 35 33 32 31 30 28 27 25 23 21 20 18 16 15 13 11 9 8 8 8 6 4 3
3 3 4 5 8 7 4 5 4 6 6 1 7 12 14 14 16 18 19 24 30 33 38 40 38 37 37 36 35 34 34 33 31 28 27 25 23 21 19 17 15 13 11 11 9 9 8 6 6
2 3 8 4 5 4 5 5 3 4 3 3 8 11 12 15 20 17 21 26 34 37 41 42 41 39 39 40 39 39 37 36 34 33 31 29 26 23 22 20 18 16 15 13 12 8 8 8 7
3 6 5 4 4 6 7 5 7 5 2 4 7 7 8 15 12 22 32 32 37 42 41 44 44 43 44 44 43 42 41 39 38 36 34 32 30 27 25 23 21 19 16 15 14 12 10 9 8
4 3 4 4 4 5 7 9 7 2 6 6 7 7 8 10 17 26 25 32 32 32 41 44 45 47 47 48 47 45 44 43 42 40 37 35 32 30 28 27 24 22 19 18 18 17 14 12 12
5 3 5 6 4 2 5 4 4 3 4 5 7 9 10 12 11 23 29 35 35 42 37 43 45 48 48 43 41 43 43 44 43 41 40 38 36 33 31 30 25 23 22 22 22 20 19 17 15
6 5 4 5 3 4 6 7 9 9 9 7 6 8 9 11 16 28 31 34 35 35 36 37 42 45 43 40 39 38 40 43 44 45 43 40 39 36 34 33 29 26 25 26 26 23 21 20 17
3 4 5 1 1 6 3 10 12 12 10 9 9 8 9 11 18 23 29 33 31 30 34 40 41 43 40 40 36 34 41 37 42 44 45 43 41 39 37 37 32 30 29 29 28 26 24 21 19
4 4 12 3 4 3 5 19 12 6 10 8 10 10 10 6 8 14 24 28 30 34 40 37 43 41 46 40 41 33 31 32 34 36 42 45 43 41 39 39 36 35 34 34 32 31 26 15 22
5 9 8 6 5 4 5 12 16 4 6 8 7 10 9 9 10 9 9 22 28 29 34 39 46 47 47 43 31 29 25 29 28 36 41 49 47 43 41 42 39 38 39 39 36 35 34 21 21
6 8 9 5 2 3 3 7 16 8 13 9 9 6 9 10 9 6 7 13 23 29 31 33 34 36 38 36 35 39 39 31 40 35 34 37 47 46 43 42 43 41 42 42 40 38 35 28 20
4 3 2 3 2 5 2 3 10 8 16 7 8 9 7 8 9 10 10 10 19 22 30 35 34 34 37 39 43 37 36 39 28 30 32 36 41 46 46 45 45 44 45 44 43 40 36 31 25
2 1 2 3 4 4 8 2 22 4 7 3 4 8 10 9 9 10 17 18 12 15 15 26 30 37 39 42 42 42 42 38 30 31 33 34 35 42 47 45 45 48 46 46 43 42 38 32 26
2 4 2 1 1 9 10 9 24 1 6 9 8 11 11 10 11 12 10 14 20 16 18 16 25 34 35 39 40 45 46 41 40 35 35 32 33 41 50 49 47 47 47 45 41 40 35 30 25
5 7 5 5 4 3 3 9 9 6 4 5 7 8 11 13 15 17 14 13 22 28 22 15 17 26 33 38 43 45 45 42 41 38 38 37 37 41 42 48 45 43 42 39 37 35 31 27 22
1 1 3 1 2 2 5 12 18 20 18 8 13 15 15 16 15 17 17 22 21 25 30 29 23 25 29 37 45 42 42 43 42 39 36 37 36 38 44 47 47 45 40 38 36 33 29 25 22
3 2 2 2 2 4 4 5 11 11 4 9 12 11 13 15 15 15 14 24 31 30 30 32 33 30 31 36 40 41 44 45 43 38 39 41 37 41 42 43 45 43 39 38 37 34 29 25 21
4 2 2 1 4 4 3 6 4 4 5 5 7 13 15 15 17 17 15 22 29 32 32 33 30 31 34 34 37 39 39 40 39 41 40 40 39 43 42 40 42 41 40 40 39 36 32 29 26
3 4 4 4 4 2 2 11 5 5 5 12 10 12 14 13 15 17 14 23 26 27 29 32 31 30 29 31 29 33 33 34 38 38 37 36 41 38 37 38 36 34 37 38 38 34 28 31 28
Wind_Direction
338 326 345 49 54 60 294 286 287 247 175 184 136 146 181 170 175 214 252 159 162 165 168 166 165 163 157 151 149 146 145 144 141 139 135 132 130 128 125 122 121 117 114 111 108 107 105 102 97
342 18 56 86 82 54 294 267 293 278 75 106 83 117 82 277 122 113 137 161 166 165 167 168 168 167 162 157 153 151 152 148 147 144 141 138 135 133 129 126 124 123 119 116 110 106 103 99 94
64 91 79 87 109 154 222 235 278 329 137 122 86 58 68 303 15 165 198 162 167 167 168 169 170 170 166 162 157 157 158 155 153 150 147 143 140 137 134 130 127 124 124 122 117 109 103 97 95
199 22 40 77 271 249 224 217 14 93 310 91 107 85 41 334 153 207 165 165 167 168 170 170 172 172 169 166 163 165 163 162 161 159 153 151 147 143 139 136 134 132 129 124 118 109 102 98 88
50 51 61 46 267 267 256 281 236 220 264 85 73 152 352 24 187 167 165 168 169 170 171 172 174 174 173 171 169 169 167 167 166 166 162 159 154 150 147 145 141 137 132 127 119 112 106 95 85
35 92 68 244 259 271 285 235 135 213 172 101 88 122 234 185 158 160 166 171 174 171 171 173 176 177 177 176 175 174 171 172 172 172 171 168 162 157 156 154 151 146 137 129 118 110 101 92 85
115 86 208 250 270 307 269 294 184 169 157 185 130 142 277 197 177 165 172 175 175 172 172 174 177 181 183 181 181 179 176 176 177 177 177 177 171 164 161 160 159 155 148 139 131 116 100 93 78
109 91 107 253 283 284 309 336 119 108 182 122 124 204 231 197 165 168 172 173 175 175 177 178 180 183 185 186 187 185 183 181 180 181 182 183 180 176 173 170 167 164 161 153 138 127 115 112 92
127 63 205 231 204 298 325 9 342 89 122 136 175 177 196 152 162 161 164 169 175 178 182 183 185 187 189 190 190 191 190 189 187 186 188 188 188 185 182 180 178 175 173 168 158 148 134 125 114
92 131 221 218 243 305 303 283 306 92 66 146 84 43 128 146 159 161 171 174 180 181 186 188 189 190 192 193 193 195 195 195 196 195 194 194 192 190 190 188 186 183 185 186 182 171 159 140 127
151 206 221 258 250 347 307 323 263 122 294 224 206 153 153 155 170 177 185 191 190 190 190 193 195 194 194 197 197 199 200 200 202 203 203 201 198 195 196 193 191 195 197 198 194 182 174 168 160
280 233 255 286 10 349 310 314 280 207 212 223 200 157 155 177 186 187 192 197 196 198 199 199 199 199 199 201 201 203 203 205 206 208 210 209 207 204 202 199 198 200 202 201 196 195 205 196 195
202 266 273 289 298 279 289 276 258 262 265 351 134 153 180 190 197 204 201 201 201 205 206 206 205 204 203 204 207 207 208 209 209 210 212 214 213 212 209 206 207 213 215 211 212 222 225 224 205
311 270 282 288 277 260 272 281 55 331 312 131 164 185 193 198 198 190 203 208 206 207 211 210 210 210 209 209 211 212 213 215 214 213 215 216 217 216 216 217 218 218 219 224 227 225 223 193 206
293 314 325 224 240 243 167 301 234 180 249 195 205 219 215 222 195 207 207 210 210 212 211 212 212 213 214 214 215 216 216 218 219 219 219 219 220 219 219 219 224 224 222 224 227 219 205 196 188
359 53 351 293 151 264 149 260 258 261 162 248 252 241 232 236 216 222 220 220 218 214 216 215 214 216 219 218 218 218 220 220 221 223 223 224 225 224 224 225 224 224 227 223 219 210 200 188 181
356 240 247 294 236 276 178 275 281 9 168 241 226 242 241 244 235 237 230 227 222 222 216 218 218 219 220 220 220 222 223 224 225 226 227 227 228 228 228 225 224 225 228 229 214 203 206 191 184
206 214 238 245 336 358 300 254 279 291 307 273 241 235 248 248 241 238 235 234 231 224 219 221 221 221 220 221 222 225 226 229 229 229 230 230 230 229 229 228 226 230 232 226 208 205 197 192 186
173 231 240 264 344 1 302 287 274 283 290 294 277 253 225 238 249 245 241 237 228 223 221 222 220 221 216 212 213 215 219 222 227 228 231 232 232 232 230 228 229 230 225 214 210 201 195 183 182
261 271 268 292 241 195 334 291 281 247 264 241 259 278 268 227 258 263 251 241 229 222 219 216 220 217 219 213 214 215 219 223 226 229 230 232 231 230 228 226 225 225 216 212 209 206 189 186 186
213 230 267 266 309 226 252 284 295 265 232 269 227 241 274 258 259 272 266 251 240 229 224 216 220 218 216 213 208 212 218 224 221 223 225 228 227 227 227 226 226 223 217 216 212 207 205 185 192
242 193 224 258 315 273 136 287 280 288 288 259 287 260 269 294 295 278 275 272 262 242 234 232 226 222 222 210 204 205 209 211 221 221 222 222 226 227 225 228 228 225 220 219 215 209 208 207 189
218 68 173 172 203 15 149 244 292 15 299 305 299 293 288 284 306 318 326 283 305 276 253 238 237 226 220 212 213 213 218 220 219 216 216 216 221 224 224 227 228 228 223 221 219 211 209 212 204
6 49 230 183 118 251 228 11 284 217 272 300 313 326 324 330 320 310 318 334 332 328 302 279 251 238 223 218 215 215 219 222 218 212 206 208 211 215 223 226 228 227 224 222 218 216 213 212 214
167 87 332 2 174 239 139 186 242 80 296 298 304 311 329 331 340 348 329 326 336 327 316 295 269 252 238 223 219 220 223 220 219 215 209 204 202 209 219 222 222 221 223 222 216 213 211 207 209
190 167 164 211 210 292 142 226 248 332 67 341 12 14 358 349 339 336 335 320 317 319 318 299 284 263 255 236 230 227 225 223 222 217 212 209 208 210 213 218 219 218 221 220 213 208 207 201 196
311 145 186 267 328 268 225 278 292 278 277 35 8 359 348 336 332 325 324 323 319 314 313 309 292 281 271 252 240 231 229 226 224 222 214 211 207 211 216 217 216 217 216 214 208 202 199 192 184
104 254 49 42 249 250 262 251 238 288 356 20 358 340 328 322 323 320 316 317 316 314 308 304 294 286 282 270 243 230 223 224 224 221 212 209 204 214 218 215 213 211 212 208 202 198 190 184 174
346 353 46 227 158 222 271 248 218 109 109 11 335 336 335 323 321 322 318 314 311 308 308 307 303 297 293 281 248 228 222 218 218 221 215 207 205 214 213 210 210 208 201 200 196 191 181 173 163
215 204 154 153 250 273 316 269 62 114 332 348 337 328 324 308 310 309 314 322 321 315 312 312 310 307 308 296 260 228 223 215 212 215 213 198 207 208 208 205 199 193 195 191 190 177 173 163 157